THY6501 DNMM-DGAA

Flight info

Callsign THY6501
Flight time 0h 40m
Altitude 26000
Route POLTO1Q POLTO UL433 EREKA EREKA1B
Aircraft A333/H-SDE3GHIJ2J3J5M1RVWXY/LB2D1

Departure

Time 2026-04-26 20:14
Airport Murtala Muhammed International Airport (DNMM)

Arrival

Time 2026-04-26 20:55
Airport Kotoka International Airport (DGAA)
Time Latitude Longitude Altitude Speed Heading
2026-04-26 20:07 6.56883 3.31734 72 ft 4 kts 86°
2026-04-26 20:08 6.56878 3.31709 67 ft 4 kts 52°
2026-04-26 20:08 6.56860 3.31695 67 ft 4 kts 23°
2026-04-26 20:08 6.56835 3.31689 67 ft 4 kts 360°
2026-04-26 20:08 6.56821 3.31689 66 ft 1 kts 355°
2026-04-26 20:10 6.56822 3.31689 66 ft 0 kts 355°
2026-04-26 20:10 6.56842 3.31672 65 ft 8 kts 306°
2026-04-26 20:10 6.56863 3.31573 69 ft 14 kts 289°
2026-04-26 20:11 6.56913 3.31540 68 ft 10 kts 356°
2026-04-26 20:11 6.57046 3.31540 65 ft 26 kts
2026-04-26 20:11 6.57233 3.31537 67 ft 29 kts 358°
2026-04-26 20:12 6.57657 3.31532 55 ft 32 kts 360°
2026-04-26 20:12 6.57880 3.31529 62 ft 32 kts 359°
2026-04-26 20:12 6.58099 3.31527 61 ft 31 kts 359°
2026-04-26 20:12 6.58311 3.31524 64 ft 30 kts
2026-04-26 20:13 6.58518 3.31522 66 ft 30 kts 359°
2026-04-26 20:13 6.58721 3.31519 69 ft 27 kts 359°
2026-04-26 20:13 6.58812 3.31428 68 ft 19 kts 271°
2026-04-26 20:13 6.58733 3.31327 70 ft 24 kts 202°
2026-04-26 20:14 6.58435 3.31318 64 ft 74 kts 179°
2026-04-26 20:14 6.57697 3.31327 60 ft 139 kts 179°
2026-04-26 20:14 6.56542 3.31343 251 ft 181 kts 180°
2026-04-26 20:14 6.55290 3.31365 1237 ft 176 kts 179°
2026-04-26 20:15 6.54071 3.31383 2196 ft 178 kts 179°
2026-04-26 20:15 6.52776 3.31198 2724 ft 199 kts 201°
2026-04-26 20:15 6.51745 3.30273 3384 ft 210 kts 243°
2026-04-26 20:15 6.51441 3.28837 4190 ft 213 kts 266°
2026-04-26 20:16 6.51415 3.27338 5008 ft 216 kts 269°
2026-04-26 20:16 6.51425 3.25796 5726 ft 225 kts 270°
2026-04-26 20:16 6.51427 3.24178 6365 ft 237 kts 270°
2026-04-26 20:16 6.51390 3.22487 6963 ft 249 kts 268°
2026-04-26 20:17 6.51314 3.20650 7250 ft 276 kts 267°
2026-04-26 20:17 6.51218 3.18633 7544 ft 300 kts 267°
2026-04-26 20:17 6.51111 3.16493 8204 ft 310 kts 267°
2026-04-26 20:17 6.51038 3.15049 8727 ft 314 kts 267°
2026-04-26 20:18 6.50887 3.12066 9786 ft 324 kts 267°
2026-04-26 20:18 6.50771 3.09792 10334 ft 339 kts 267°
2026-04-26 20:18 6.50655 3.07347 10671 ft 359 kts 268°
2026-04-26 20:18 6.50538 3.04793 11245 ft 369 kts 268°
2026-04-26 20:19 6.50420 3.02211 12027 ft 371 kts 267°
2026-04-26 20:19 6.50301 2.99615 12872 ft 372 kts 267°
2026-04-26 20:19 6.50182 2.97009 13734 ft 373 kts 267°
2026-04-26 20:19 6.50063 2.94400 14461 ft 375 kts 267°
2026-04-26 20:20 6.49942 2.91772 15176 ft 378 kts 267°
2026-04-26 20:20 6.49821 2.89125 15882 ft 380 kts 268°
2026-04-26 20:20 6.49698 2.86459 16601 ft 383 kts 268°
2026-04-26 20:20 6.49575 2.83776 17314 ft 385 kts 268°
2026-04-26 20:21 6.49450 2.81079 18017 ft 388 kts 268°
2026-04-26 20:21 6.49325 2.78359 18636 ft 391 kts 268°
2026-04-26 20:21 6.49095 2.75626 19238 ft 393 kts 261°
2026-04-26 20:21 6.48468 2.72936 19848 ft 396 kts 255°
2026-04-26 20:22 6.47628 2.70287 20448 ft 398 kts 251°
2026-04-26 20:22 6.46692 2.67697 21040 ft 400 kts 250°
2026-04-26 20:22 6.45694 2.65065 21606 ft 404 kts 250°
2026-04-26 20:22 6.44681 2.62420 22145 ft 407 kts 250°
2026-04-26 20:23 6.43668 2.59745 22721 ft 410 kts 250°
2026-04-26 20:23 6.42662 2.57048 23268 ft 412 kts 251°
2026-04-26 20:23 6.41663 2.54336 23772 ft 415 kts 251°
2026-04-26 20:23 6.40662 2.51594 24195 ft 419 kts 251°
2026-04-26 20:24 6.39658 2.48831 24636 ft 422 kts 251°
2026-04-26 20:24 6.38651 2.46055 25047 ft 425 kts 251°
2026-04-26 20:24 6.37645 2.43283 25467 ft 428 kts 251°
2026-04-26 20:24 6.36661 2.40448 25871 ft 431 kts 255°
2026-04-26 20:25 6.35986 2.37505 26270 ft 433 kts 259°
2026-04-26 20:25 6.35600 2.35486 26546 ft 435 kts 260°
2026-04-26 20:25 6.34921 2.31483 27056 ft 440 kts 261°
2026-04-26 20:25 6.34444 2.28432 27425 ft 443 kts 262°
2026-04-26 20:26 6.33976 2.25363 27799 ft 444 kts 262°
2026-04-26 20:26 6.33513 2.22324 27913 ft 432 kts 262°
2026-04-26 20:26 6.33062 2.19391 27915 ft 417 kts 262°
2026-04-26 20:26 6.32619 2.16534 27896 ft 411 kts 262°
2026-04-26 20:27 6.32174 2.13693 27906 ft 411 kts 261°
2026-04-26 20:27 6.31733 2.10882 27901 ft 412 kts 261°
2026-04-26 20:27 6.31282 2.08021 27893 ft 412 kts 261°
2026-04-26 20:27 6.30832 2.05172 27904 ft 412 kts 261°
2026-04-26 20:28 6.30382 2.02325 27890 ft 412 kts 261°
2026-04-26 20:28 6.29931 1.99471 27903 ft 412 kts 261°
2026-04-26 20:28 6.29486 1.96657 27914 ft 412 kts 261°
2026-04-26 20:28 6.29036 1.93813 27908 ft 412 kts 261°
2026-04-26 20:29 6.28585 1.90959 27914 ft 412 kts 261°
2026-04-26 20:29 6.28135 1.88114 27908 ft 412 kts 261°
2026-04-26 20:29 6.27684 1.85267 27910 ft 412 kts 261°
2026-04-26 20:29 6.27233 1.82416 27907 ft 412 kts 261°
2026-04-26 20:30 6.26782 1.79568 27918 ft 412 kts 261°
2026-04-26 20:30 6.26330 1.76716 27921 ft 413 kts 261°
2026-04-26 20:30 6.25880 1.73876 27922 ft 413 kts 261°
2026-04-26 20:30 6.25433 1.71060 27921 ft 412 kts 261°
2026-04-26 20:31 6.24976 1.68181 27905 ft 409 kts 261°
2026-04-26 20:31 6.24541 1.65441 27932 ft 395 kts 261°
2026-04-26 20:31 6.24116 1.62767 27927 ft 381 kts 261°
2026-04-26 20:31 6.23706 1.60185 27927 ft 367 kts 261°
2026-04-26 20:32 6.23310 1.57697 27923 ft 356 kts 261°
2026-04-26 20:32 6.22913 1.55193 27928 ft 371 kts 261°
2026-04-26 20:32 6.22498 1.52573 27934 ft 388 kts 261°
2026-04-26 20:32 6.22063 1.49833 27922 ft 404 kts 261°
2026-04-26 20:33 6.21614 1.47012 27927 ft 411 kts 261°
2026-04-26 20:33 6.21162 1.44170 27936 ft 413 kts 261°
2026-04-26 20:33 6.20708 1.41320 27939 ft 413 kts 261°
2026-04-26 20:33 6.20254 1.38470 27939 ft 413 kts 261°
2026-04-26 20:34 6.19800 1.35624 27946 ft 413 kts 261°
2026-04-26 20:34 6.19346 1.32773 27939 ft 413 kts 261°
2026-04-26 20:34 6.18893 1.29929 27586 ft 413 kts 261°
2026-04-26 20:34 6.18270 1.27087 26728 ft 421 kts 252°
2026-04-26 20:35 6.17256 1.24344 26395 ft 427 kts 249°
2026-04-26 20:35 6.16131 1.21556 26139 ft 431 kts 248°
2026-04-26 20:35 6.14962 1.18802 25829 ft 424 kts 247°
2026-04-26 20:35 6.13783 1.16096 25355 ft 421 kts 247°
2026-04-26 20:36 6.12615 1.13440 24834 ft 419 kts 247°
2026-04-26 20:36 6.11438 1.10764 24317 ft 418 kts 247°
2026-04-26 20:36 6.10266 1.08091 23822 ft 415 kts 248°
2026-04-26 20:36 6.09106 1.05435 23277 ft 413 kts 248°
2026-04-26 20:37 6.07956 1.02794 22732 ft 410 kts 248°
2026-04-26 20:37 6.06846 1.00210 22223 ft 405 kts 249°
2026-04-26 20:37 6.05826 0.97585 21749 ft 401 kts 250°
2026-04-26 20:37 6.04850 0.94972 21257 ft 398 kts 251°
2026-04-26 20:38 6.03885 0.92377 20765 ft 395 kts 251°
2026-04-26 20:38 6.02925 0.89798 20285 ft 392 kts 251°
2026-04-26 20:38 6.01970 0.87238 19803 ft 390 kts 251°
2026-04-26 20:38 6.01018 0.84688 19324 ft 388 kts 251°
2026-04-26 20:39 6.00071 0.82155 18848 ft 386 kts 251°
2026-04-26 20:39 5.99447 0.80488 18528 ft 384 kts 251°
2026-04-26 20:39 5.98463 0.77079 17838 ft 380 kts 260°
2026-04-26 20:39 5.98006 0.74475 17360 ft 376 kts 262°
2026-04-26 20:40 5.97592 0.71885 16876 ft 373 kts 262°
2026-04-26 20:40 5.97184 0.69317 16421 ft 371 kts 262°
2026-04-26 20:40 5.96776 0.66767 15938 ft 369 kts 262°
2026-04-26 20:40 5.96368 0.64231 15452 ft 367 kts 262°
2026-04-26 20:41 5.95964 0.61735 14997 ft 365 kts 262°
2026-04-26 20:41 5.95557 0.59224 14541 ft 363 kts 261°
2026-04-26 20:41 5.95151 0.56727 14079 ft 362 kts 261°
2026-04-26 20:41 5.94747 0.54236 13588 ft 360 kts 261°
2026-04-26 20:42 5.94344 0.51758 13104 ft 358 kts 261°
2026-04-26 20:42 5.93944 0.49302 12664 ft 355 kts 261°
2026-04-26 20:42 5.93547 0.46864 12205 ft 352 kts 261°
2026-04-26 20:42 5.93157 0.44473 11765 ft 350 kts 261°
2026-04-26 20:43 5.92765 0.42065 11310 ft 349 kts 261°
2026-04-26 20:43 5.92374 0.39662 10849 ft 348 kts 261°
2026-04-26 20:43 5.91983 0.37263 10386 ft 348 kts 261°
2026-04-26 20:43 5.91597 0.34900 10222 ft 335 kts 261°
2026-04-26 20:44 5.91229 0.32643 10132 ft 321 kts 261°
2026-04-26 20:44 5.90875 0.30472 10001 ft 311 kts 261°
2026-04-26 20:44 5.90526 0.28338 9709 ft 309 kts 261°
2026-04-26 20:44 5.90178 0.26200 9294 ft 311 kts 261°
2026-04-26 20:45 5.89829 0.24061 9001 ft 311 kts 261°
2026-04-26 20:45 5.89478 0.21915 8621 ft 312 kts 261°
2026-04-26 20:45 5.89127 0.19767 8214 ft 310 kts 261°
2026-04-26 20:45 5.88779 0.17638 7849 ft 307 kts 261°
2026-04-26 20:46 5.88435 0.15527 7476 ft 305 kts 260°
2026-04-26 20:46 5.88208 0.14139 7237 ft 303 kts 260°
2026-04-26 20:46 5.87868 0.12064 6878 ft 300 kts 260°
2026-04-26 20:46 5.87532 0.10005 6534 ft 297 kts 260°
2026-04-26 20:47 5.87198 0.07966 6185 ft 295 kts 260°
2026-04-26 20:47 5.86974 0.06597 5945 ft 292 kts 260°
2026-04-26 20:47 5.86541 0.03949 5467 ft 289 kts 260°
2026-04-26 20:47 5.86218 0.01971 5137 ft 285 kts 260°
2026-04-26 20:48 5.85899 0.00023 4817 ft 281 kts 259°
2026-04-26 20:48 5.85583 -0.01908 4466 ft 278 kts 259°
2026-04-26 20:48 5.85273 -0.03800 4221 ft 267 kts 259°
2026-04-26 20:48 5.84796 -0.05520 4042 ft 246 kts 240°
2026-04-26 20:49 5.83790 -0.06787 3987 ft 220 kts 221°
2026-04-26 20:49 5.82594 -0.07593 3977 ft 196 kts 206°
2026-04-26 20:49 5.81411 -0.08101 3970 ft 175 kts 201°
2026-04-26 20:49 5.80237 -0.08573 3958 ft 189 kts 201°
2026-04-26 20:50 5.79012 -0.09072 3853 ft 190 kts 201°
2026-04-26 20:50 5.77791 -0.09573 3627 ft 189 kts 202°
2026-04-26 20:50 5.76570 -0.10080 3346 ft 188 kts 202°
2026-04-26 20:50 5.75368 -0.10578 3078 ft 184 kts 202°
2026-04-26 20:51 5.74229 -0.11049 2839 ft 171 kts 202°
2026-04-26 20:51 5.73174 -0.11484 2630 ft 163 kts 202°
2026-04-26 20:51 5.72160 -0.11904 2437 ft 151 kts 203°
2026-04-26 20:51 5.71202 -0.12300 2253 ft 148 kts 203°
2026-04-26 20:52 5.70253 -0.12693 2052 ft 148 kts 202°
2026-04-26 20:52 5.69305 -0.13086 1852 ft 148 kts 202°
2026-04-26 20:52 5.68355 -0.13479 1676 ft 147 kts 202°
2026-04-26 20:52 5.67408 -0.13870 1481 ft 147 kts 203°
2026-04-26 20:53 5.66462 -0.14261 1290 ft 147 kts 203°
2026-04-26 20:53 5.65518 -0.14652 1096 ft 147 kts 202°
2026-04-26 20:53 5.64571 -0.15044 889 ft 148 kts 203°
2026-04-26 20:53 5.63621 -0.15448 655 ft 149 kts 203°
2026-04-26 20:54 5.62659 -0.15849 426 ft 150 kts 200°
2026-04-26 20:54 5.61695 -0.16241 250 ft 148 kts 202°
2026-04-26 20:54 5.60784 -0.16614 218 ft 130 kts 202°
2026-04-26 20:54 5.60119 -0.16887 218 ft 78 kts 202°
2026-04-26 20:55 5.59662 -0.17072 216 ft 65 kts 202°
2026-04-26 20:55 5.59302 -0.17219 217 ft 28 kts 202°
2026-04-26 20:55 5.59179 -0.17334 219 ft 23 kts 260°
2026-04-26 20:55 5.59259 -0.17433 219 ft 19 kts 355°
2026-04-26 20:56 5.59379 -0.17400 217 ft 18 kts 22°
2026-04-26 20:56 5.59502 -0.17351 222 ft 20 kts 20°
2026-04-26 20:56 5.59636 -0.17294 219 ft 22 kts 23°
2026-04-26 20:56 5.59773 -0.17238 221 ft 19 kts 21°
2026-04-26 20:57 5.59845 -0.17240 221 ft 5 kts 309°
2026-04-26 20:57 5.59866 -0.17282 219 ft 6 kts 292°
2026-04-26 20:57 5.59880 -0.17317 218 ft 3 kts 292°
2026-04-26 20:57 5.59881 -0.17319 218 ft 0 kts 292°